Location: Mentone
(34.5413°N, 85.5351°W)
Time: 06:46:08
(UTC-05:00)

AO-Echo - Visible Passes

Search period start: 01 May 2016 00:00
Search period end: 11 May 2016 00:00
Orbit: 693 x 812 km, 98.3° (Epoch: 30 April)

Date Brightness Start Highest point End Pass type
(mag) Time Alt. Az. Time Alt. Az. Time Alt. Az.
01 May ? 02:20:33 10° NNE 02:22:50 29° N 02:22:50 29° N visible
02 May ? 01:40:30 10° NNE 01:42:01 19° NE 01:42:01 19° NE visible
02 May ? 03:19:49 10° NNW 03:21:58 19° NW 03:21:58 19° NW visible
03 May ? 02:38:30 10° N 02:41:08 31° NNW 02:41:08 31° NNW visible
04 May ? 01:58:04 10° NNE 02:00:18 27° NE 02:00:18 27° NE visible
04 May ? 03:38:38 10° NW 03:40:15 13° NW 03:40:15 13° NW visible
05 May ? 01:18:39 10° NE 01:19:29 13° NE 01:19:29 13° NE visible
05 May ? 02:56:37 10° N 02:59:25 28° NW 02:59:25 28° NW visible
06 May ? 02:15:50 10° NNE 02:18:36 35° NNE 02:18:36 35° NNE visible
07 May ? 01:35:53 10° NE 01:37:46 20° NE 01:37:46 20° NE visible
07 May ? 03:14:56 10° NNW 03:17:43 22° NW 03:17:43 22° NW visible
08 May ? 02:33:45 10° N 02:36:53 39° NNW 02:36:53 39° NNW visible
09 May ? 01:53:24 10° NNE 01:56:03 30° NE 01:56:03 30° NE visible
09 May ? 03:33:35 10° NNW 03:36:00 16° WNW 03:36:00 16° WNW visible
10 May ? 01:14:08 10° NE 01:15:13 14° ENE 01:15:13 14° ENE visible
10 May ? 02:51:49 10° N 02:55:10 34° NW 02:55:10 34° NW visible
